Weather History for Louisville Bowman, KY

Change the Weather History Date:

Monday, September 16, 2013

  Actual Average Record
Temperature  
Mean Temperature 69 °F 70 °F  
Max Temperature 74 °F 80 °F 96 °F (1954)
Min Temperature 63 °F 59 °F 45 °F (1961)
Degree Days  
Heating Degree Days 0 1  
Month to date heating degree days 3 3  
Since 1 July heating degree days 3 3  
Cooling Degree Days 4 5  
Month to date cooling degree days 150 125  
Year to date cooling degree days 1353 1364  
Growing Degree Days 20 (Base 50)    
Moisture  
Dew Point 60 °F    
Average Humidity 74    
Maximum Humidity 87    
Minimum Humidity 61    
Precipitation  
Precipitation T in 0.10 in 1.47 in (1956)
Month to date precipitation 1.51 1.59  
Year to date precipitation 38.57 33.13  
Sea Level Pressure  
Sea Level Pressure 30.17 in    
Wind  
Wind Speed 5 mph (NE)    
Max Wind Speed 10 mph    
Max Gust Speed 15 mph    
Visibility 10 miles    
Events Rain    
T = Trace of Precipitation, MM = Missing Value Source: NWS Daily Summary

Daily Weather History Graph

Daily Weather History Graph

Search for Another Location

Airport:

Trip Planner

Search our weather history database for the weather conditions in past years. The results will help you decide how hot, cold, wet, or windy it might be!

Date:

Astronomy

Sep. 16, 2013 Rise Set
Actual Time 7:25 AM EDT 7:48 PM EDT
Civil Twilight 6:58 AM EDT 8:15 PM EDT
Nautical Twilight 6:27 AM EDT 8:46 PM EDT
Astronomical Twilight 5:56 AM EDT 9:17 PM EDT
Moon 5:55 PM EDT (9/16) 4:12 AM EDT (9/16)
Length of Visible Light 13h 16m
Length of Day
12h 23m
Waxing Gibbous, 90% of the Moon is Illuminated
Sep 16
Waxing Gibbous
Sep 19
Full
Sep 26
Last Quarter
Oct 4
New
Oct 11
First Quarter

Hourly Weather History & Observations

Time (EDT) Temp. Dew Point Humidity Pressure Visibility Wind Dir Wind Speed Gust Speed Precip Events Conditions
12:53 AM 69.1 °F 60.1 °F 73% 30.08 in 10.0 mi Calm Calm - N/A   Overcast
2:53 AM 69.1 °F 61.0 °F 75% 30.09 in 10.0 mi Calm Calm - N/A   Overcast
3:53 AM 66.9 °F 63.0 °F 87% 30.09 in 8.0 mi Calm Calm - 0.00 in Rain Light Rain
4:53 AM 66.9 °F 63.0 °F 87% 30.10 in 10.0 mi Calm Calm - 0.00 in   Overcast
5:53 AM 68.0 °F 63.0 °F 84% 30.11 in 10.0 mi Calm Calm - N/A   Overcast
6:53 AM 66.9 °F 63.0 °F 87% 30.12 in 10.0 mi Calm Calm - 0.00 in   Overcast
7:53 AM 66.9 °F 62.1 °F 84% 30.12 in 10.0 mi ESE 3.5 mph - N/A   Overcast
8:53 AM 66.9 °F 61.0 °F 81% 30.16 in 10.0 mi ENE 3.5 mph - N/A   Overcast
9:53 AM 68.0 °F 61.0 °F 78% 30.17 in 10.0 mi NNE 5.8 mph - N/A   Overcast
10:53 AM 68.0 °F 62.1 °F 81% 30.19 in 10.0 mi NNE 5.8 mph - 0.00 in   Overcast
11:53 AM 69.1 °F 61.0 °F 75% 30.20 in 10.0 mi NE 8.1 mph - N/A   Overcast
12:53 PM 72.0 °F 60.1 °F 66% 30.21 in 10.0 mi NE 5.8 mph - N/A   Mostly Cloudy
1:53 PM 72.0 °F 60.1 °F 66% 30.21 in 10.0 mi ENE 8.1 mph - N/A   Overcast
2:53 PM 73.0 °F 59.0 °F 61% 30.20 in 10.0 mi ENE 8.1 mph - N/A   Unknown
3:53 PM 73.0 °F 59.0 °F 61% 30.19 in 10.0 mi NNE 8.1 mph - N/A   Overcast
4:53 PM 72.0 °F 59.0 °F 64% 30.20 in 10.0 mi NNE 9.2 mph - N/A   Overcast
5:53 PM 71.1 °F 59.0 °F 66% 30.20 in 10.0 mi NNE 8.1 mph - N/A   Overcast
6:53 PM 71.1 °F 57.9 °F 63% 30.20 in 10.0 mi NE 5.8 mph - N/A   Overcast
7:53 PM 70.0 °F 57.0 °F 63% 30.20 in 10.0 mi ENE 6.9 mph - N/A   Overcast
8:53 PM 69.1 °F 57.9 °F 68% 30.22 in 10.0 mi NNE 5.8 mph - N/A   Overcast
9:53 PM 66.9 °F 57.9 °F 73% 30.23 in 10.0 mi NNE 3.5 mph - N/A   Overcast
10:53 PM 66.9 °F 57.0 °F 70% 30.23 in 10.0 mi NE 3.5 mph - N/A   Overcast
11:53 PM 66.0 °F 55.9 °F 70% 30.25 in 10.0 mi NE 5.8 mph - N/A   Clear